Back to catalog

STARLINK-32244

AliveCommunicationsVLEO
NORAD 60411·PAYLOAD·🇺🇸 United States

Launched Aug 10, 2024 from Cape Canaveral Space Force Station

Loading…

Next Passes (next 24 hours)

TLE

FreshSource: CelesTrak SupGP

Epoch: Sep 14, 2026, 14:50 UTC

1 60411C 24141P   26257.61854167 -.00028853  00000+0 -92694-3 0  2571
2 60411  53.1578  83.7857 0001236  99.7549 275.7896 15.31747037    19

Track STARLINK-32244 in real time with AllMySat

Download on the App Store